Погода в Раменье

Россия / Ивановская область     56°49′18″N   41°45′47″E
темп.,
°C
ветер,
м/с
пор.,
м/с
влажн.,
%
обл.,
%
осадки,
мм/ч
давл.,
гПа
погр.,
м
20 апреля, вт
вт2000:00+2всв413629 0.0 1028496
03:000в4126334 0.0 1028431
06:000в412676 0.0 1027395
09:00+5вюв51050100 0.0 1027687
12:00+9вюв61041100 0.0 10251475
15:00+11вюв61040100 0.0 10231814
18:00+9вюв5114298 0.0 10211589
21:00+6в51349100 0.0 10201005
21 апреля, ср
ср2100:00+6в61351100 0.0 10171077
03:00+1в71895100 2.8 1013836
06:00+3вюв81889100 3.6 10091037
09:00+5вюв81686100 3.7 1007957
12:00+7юв71589100 0.4 10051302
15:00+7юв71490100 1.4 10051248
18:00+5ююз598898 0.9 1008812
21:00+4ююз4988100 0.9 1010689
22 апреля, чт
чт2200:00+4ююз41092100 0.0 1011684
03:00+4ююз41092100 0.1 1013676
06:00+4ю4895100 0.0 1014604
09:00+4юз3795100 0.4 1016683
12:00+6ююз4791100 0.1 1017598
15:00+9ююз357055 0.1 1017988
18:00+8ю267699 0.0 1018159
21:00+5ю3891100 0.0 1019165
23 апреля, пт
пт2300:00+4ююв389449 0.0 1019159
03:00+3ююв27955 0.0 1019125
06:00+4юв39945 0.0 1019216
09:00+10ююв487662 0.0 1018490
12:00+15ю465825 0.0 10171399
15:00+16ю465371 1.4 10161548
18:00+15ю4106191 1.5 1016426
21:00+11ююв41278100 1.5 1016334
24 апреля, сб
сб2400:00+9ююв312845 0.0 1015297
03:00+7юв310905 0.0 1014225
06:00+7юв311875 0.0 1013290
09:00+13юв5116515 0.0 1012797
12:00+16ююв6105180 0.8 10101938
15:00+15ююв4954100 1.6 10081081
18:00+12ююз3877100 2.6 1007426
21:00+4зсз4894100 7.8 1008242